EUTELSAT 117 WEST B (41589 NORAD) Tracking and Keplerian Element Data

This shows tracking and keplerian element data for the satellite.

Feedback or suggestion? Click here.




ElementValue
Catalog41589
NameEUTELSAT 117 WEST B
Epoch Orbit2929
Epoch Day160.11479028
Epoch Year2024
RAAN152.2722
Inclination0.0086
Eccentricity7.64E-05
Argument of Perigee305.588
Mean Anonmoly83.4642
Mean Motion1.00266243
Decay Rate-1.1E-07
L11 41589U 16038B 24160.11479028 -.00000011 00000+0 00000+0 0 9991
L22 41589 0.0086 152.2722 0000764 305.5880 83.4642 1.00266243 29293



Live tracking and technical data element details for EUTELSAT 117 WEST B (NORAD 41589). EUTELSAT 117 WEST B can be tracked NOW for your location showing map with azimuth and elevation plus other details from your city location.







IsCatalogInMostPopularTable: catalog: 41589, numindb: 674
Update: records affected: 1



GetName: 41589 EUTELSAT 117 WEST B

Hit Count: updated at: Mon, 17 Jun 2024 23:24:49 GMT